[ ตารางข้อมูล ] [ Min-Max ] [ วันนี้4 ] [ วันนี้2 ] [ เทียบ3วัน A ] [ เทียบ4วัน B ]   

วันนี้2   [ ◀ ช่วงเก่ากว่า ] [ ช่วงที่ 227 ] [ ช่วงใหม่กว่า ▶ ] [ ล่าสุด ]    [ 3 ชั่วโมง ] [ 6 ชั่วโมง ] [ 12 ชั่วโมง ] [ 24 ชั่วโมง ]   วันนี้2

อุณภูมิตู้ Knockdown4529  ราย 3 ชั่วโมง  ที่วัดได้ ในช่วงวันเวลา 07/04/2026 (21:21) ถึง 08/04/2026 (00:21) 
ความชื้นในตู้ Knockdown4529  ราย 3 ชั่วโมง  ที่วัดได้ ในช่วงวันเวลา 07/04/2026 (21:21) ถึง 08/04/2026 (00:21) 

 
DS18B20SHTC3 
IDDate d/m/Y & Timedata1
สูง
data2
ต่ำ
data3
นอก
temp
pcb
hum
pcb
Time
 9786  08/04/2026 00:17:20  30.4  30.4  28.9  30.3  70.2  00:17 
 9785  08/04/2026 00:12:38  30.4  30.4  28.7  30.1  70.1  00:12 
 9784  08/04/2026 00:07:56  30.4  30.4  28.7  30.4  70.2  00:07 
 9783  08/04/2026 00:03:15  30.4  30.5  28.8  30.4  70.2  00:03 
 9782  07/04/2026 23:58:34  30.4  30.5  28.9  30.4  70.2  23:58 
 9781  07/04/2026 23:53:52  30.4  30.5  28.8  30.3  70.1  23:53 
 9780  07/04/2026 23:49:10  30.5  30.6  28.6  30.4  70.0  23:49 
 9779  07/04/2026 23:44:26  30.5  30.6  28.8  30.4  70.0  23:44 
 9778  07/04/2026 23:39:44  30.5  30.6  29.0  30.5  70.0  23:39 
 9777  07/04/2026 23:35:02  30.5  30.6  29.1  30.5  70.1  23:35 
 9776  07/04/2026 23:30:20  30.6  30.6  29.2  30.5  70.0  23:30 
 9775  07/04/2026 23:25:38  30.6  30.6  29.0  30.6  70.0  23:25 
 9774  07/04/2026 23:20:56  30.6  30.6  28.9  30.5  70.2  23:20 
 9773  07/04/2026 23:16:14  30.6  30.7  28.9  30.6  70.1  23:16 
 9772  07/04/2026 23:11:32  30.6  30.7  28.7  30.6  70.1  23:11 
 9771  07/04/2026 23:06:49  30.6  30.7  28.8  30.5  70.0  23:06 
 9770  07/04/2026 23:02:08  30.6  30.7  28.7  30.5  70.1  23:02 
 9769  07/04/2026 22:57:27  30.6  30.8  28.9  30.5  70.2  22:57 
 9768  07/04/2026 22:52:44  30.6  30.8  29.0  30.6  70.1  22:52 
 9767  07/04/2026 22:48:03  30.7  30.8  29.1  30.4  70.0  22:48 
 9766  07/04/2026 22:43:21  30.7  30.8  29.2  30.6  70.0  22:43 
 9765  07/04/2026 22:38:39  30.7  30.8  29.2  30.5  70.2  22:38 
 9764  07/04/2026 22:33:56  30.7  30.8  29.2  30.7  70.0  22:33 
 9763  07/04/2026 22:29:15  30.8  30.9  29.2  31.0  70.1  22:29 

Data every 5 minute.


ใช้เวลาประมวลผล 0.00361 วินาที